Left ArrowRight Arrow

30.00354, -91.81873

Hourly Observations for April 13, 2019

Temp ( °F °C ) Dew Point ( °F °C ) Humidity (%) Winds ( mph kmh ) Pressure ( in mb ) Visibility ( mi km ) Precip ( " mm )
12:53 am 00:53 Cloudy 73 22.8 69 20.6 87 87 ESE 14 22 29.82 1010 10 16 0.00 0.00
1:53 am 01:53 Mostly Cloudy with Light Rain 72 22.2 69 20.6 91 91 ESE 14 22 29.79 1009 10 16 0.00 0.03
2:23 am 02:23 Mostly Cloudy 72 22.2 70 21.1 94 94 ESE 10 17 29.81 1009 10 16 0.00 0.03
2:53 am 02:53 Mostly Cloudy 72 22.2 70 21.1 94 94 E 15 24 29.76 1008 10 16 0.00 0.03
3:25 am 03:25 Mostly Cloudy 72 22.2 70 21.1 94 94 SE 13 20 29.77 1008 10 16 0.00 0.00
3:53 am 03:53 Cloudy 72 22.2 70 21.1 94 94 ESE 16 26 29.73 1007 10 16 0.00 0.00
4:53 am 04:53 Cloudy 73 22.8 70 21.1 90 90 SE 14 22 29.74 1007 10 16 0.00 0.00
5:53 am 05:53 Cloudy 74 23.3 70 21.1 88 88 SE 12 19 29.74 1007 10 16 0.00 0.00
6:53 am 06:53 Cloudy 74 23.3 71 21.7 91 91 SE 13 20 29.74 1007 10 16 0.00 0.00
7:53 am 07:53 Cloudy 75 23.9 71 21.7 88 88 SE 15 24 29.74 1007 10 16 0.00 0.00
8:53 am 08:53 Cloudy with Light Rain 76 24.4 72 22.2 88 88 SE 16 26 29.73 1007 10 16 0.00 0.03
9:53 am 09:53 Cloudy 77 25 72 22.2 85 85 SSE 18 30 29.75 1007 10 16 0.00 0.03
10:53 am 10:53 Cloudy with Light Rain 79 26.1 73 22.8 82 82 SSE 24 39 29.72 1007 10 16 0.00 0.03
11:53 am 11:53 Cloudy with Light Rain 78 25.6 72 22.2 82 82 SSE 29 46 29.72 1007 10 16 0.00 0.03
12:53 pm 12:53 Cloudy with Light Rain 80 26.7 73 22.8 79 79 SSE 33 54 29.67 1005 10 16 0.00 0.03
1:53 pm 13:53 Cloudy with Light Rain 80 26.7 73 22.8 79 79 SSE 29 46 29.63 1003 10 16 0.00 0.03
2:53 pm 14:53 Cloudy with Light Rain 79 26.1 73 22.8 82 82 S 33 54 29.60 1003 10 16 0.00 0.03
3:53 pm 15:53 Cloudy with Light Rain 77 25 73 22.8 88 88 S 30 48 29.59 1002 10 16 0.00 0.03
4:53 pm 16:53 Cloudy with Light Rain 77 25 73 22.8 88 88 S 24 39 29.59 1002 10 16 0.00 0.03
5:42 pm 17:42 Cloudy with Light Rain 77 25 73 22.8 88 88 S 28 44 29.58 1002 10 16 0.00 0.03
6:30 pm 18:30 Cloudy with Light Rain 77 25 73 22.8 88 88 S 25 41 29.59 1002 10 16 0.00 0.03
6:53 pm 18:53 Cloudy with Light Rain 76 24.4 73 22.8 91 91 S 23 37 29.59 1002 10 16 0.00 0.03
8:09 pm 20:09 Mostly Clear with Light Rain 76 24.4 73 22.8 91 91 S 22 35 29.61 1003 10 16 0.00 0.03
8:10 pm 20:10 Mostly Clear with Light Rain 76 24.4 73 22.8 91 91 S 20 31 29.61 1003 10 16 0.00 0.03
8:25 pm 20:25 Cloudy with Light Rain 76 24.4 73 22.8 91 91 SSW 23 37 29.62 1003 10 16 0.00 0.03
8:53 pm 20:53 Cloudy with Light Rain 76 24.4 73 22.8 91 91 SSW 23 37 29.62 1003 10 16 0.00 0.03
9:53 pm 21:53 Mostly Cloudy with Light Rain 76 24.4 73 22.8 91 91 SW 18 30 29.65 1004 10 16 0.00 0.03
10:42 pm 22:42 Mostly Cloudy with Light Rain 75 23.9 71 21.7 88 88 WSW 17 28 29.66 1004 10 16 0.00 0.03
10:53 pm 22:53 Cloudy with Light Rain 74 23.3 70 21.1 88 88 WSW 16 26 29.66 1004 10 16 0.00 0.03
11:53 pm 23:53 Cloudy 70 21.1 59 15 68 68 W 12 19 29.69 1005 10 16 0.00 0.03

Powered by Vaisala Xweather